Tracking 22438 objects as of 24-Feb-2021
HD Live streaming from Space Station
objects crossing your sky now

FREGAT DEB

Track FREGAT DEB now!
10-day predictions


NORAD ID: 45883
Int'l Code: 2011-037DC
Perigee: 610.1 km
Apogee: 3,590.0 km
Inclination: 51.5 °
Period: 129.3 minutes
Semi major axis: 8471 km
RCS: Unknown
Launch date: July 18, 2011
Source: Commonwealth of Independent States (former USSR) (CIS)
Launch site: TYURATAM MISSILE AND SPACE COMPLEX (TTMTR)

Note: This is SATELLITE DEBRIS
aabbcc
Your satellite tracking list
Your tracking list is empty




NASA's NSSDC Master Catalog

Two Line Element Set (TLE):
1 45883U 11037DC  20250.43833848 -.00008968 +00000-0 -79037-2 0  9991
2 45883 051.4884 155.4908 1758874 207.0303 142.7194 11.13513218006456
Source of the keplerian elements: AFSPC